TimeCST,TemperatureF,Dew PointF,Humidity,Sea Level PressureIn,VisibilityMPH,Wind Direction,Wind SpeedMPH,Gust SpeedMPH,PrecipitationIn,Events,Conditions,WindDirDegrees,DateUTC
12:07 AM,23.0,16.0,74,30.07,10.0,West,15.0,-,N/A,,Overcast,280,2013-12-18 06:07:00
12:53 AM,21.0,14.0,74,30.12,10.0,West,12.7,-,N/A,,Partly Cloudy,260,2013-12-18 06:53:00
1:53 AM,19.0,12.9,77,30.14,10.0,West,15.0,-,N/A,,Clear,260,2013-12-18 07:53:00
2:53 AM,17.1,12.0,81,30.14,10.0,West,15.0,-,N/A,,Clear,270,2013-12-18 08:53:00
3:53 AM,15.1,10.9,84,30.14,10.0,West,12.7,-,N/A,,Clear,270,2013-12-18 09:53:00
4:53 AM,12.0,10.0,92,30.16,10.0,West,11.5,-,N/A,,Clear,260,2013-12-18 10:53:00
5:53 AM,10.9,9.0,92,30.19,10.0,West,10.4,-,N/A,,Clear,280,2013-12-18 11:53:00
6:53 AM,10.9,9.0,92,30.19,10.0,WSW,8.1,-,N/A,,Clear,240,2013-12-18 12:53:00
7:53 AM,12.9,10.9,92,30.19,10.0,SW,9.2,-,N/A,,Overcast,230,2013-12-18 13:53:00
8:53 AM,12.9,10.9,92,30.21,10.0,SSW,4.6,-,N/A,,Clear,200,2013-12-18 14:53:00
9:53 AM,16.0,12.9,88,30.22,10.0,SSW,9.2,-,N/A,,Clear,210,2013-12-18 15:53:00
10:53 AM,18.0,12.9,81,30.20,10.0,South,8.1,-,N/A,,Clear,190,2013-12-18 16:53:00
11:53 AM,19.9,15.1,81,30.17,10.0,South,8.1,-,N/A,,Clear,180,2013-12-18 17:53:00
12:53 PM,21.0,15.1,78,30.13,10.0,South,9.2,-,N/A,,Clear,180,2013-12-18 18:53:00
1:53 PM,23.0,16.0,74,30.08,10.0,South,10.4,-,N/A,,Clear,180,2013-12-18 19:53:00
2:53 PM,23.0,15.1,72,30.04,10.0,South,12.7,-,N/A,,Clear,180,2013-12-18 20:53:00
3:53 PM,24.1,15.1,69,29.99,10.0,South,13.8,-,N/A,,Clear,170,2013-12-18 21:53:00
4:53 PM,25.0,14.0,63,29.96,10.0,South,13.8,20.7,N/A,,Clear,180,2013-12-18 22:53:00
5:53 PM,26.1,15.1,63,29.96,10.0,South,11.5,-,N/A,,Clear,180,2013-12-18 23:53:00
6:53 PM,27.0,15.1,61,29.96,10.0,SSW,13.8,-,N/A,,Clear,200,2013-12-19 00:53:00
7:53 PM,28.0,17.1,63,29.95,10.0,South,10.4,-,N/A,,Clear,190,2013-12-19 01:53:00
8:53 PM,28.9,19.9,69,29.93,10.0,SSW,13.8,-,N/A,,Clear,200,2013-12-19 02:53:00
9:53 PM,34.0,25.0,70,29.92,10.0,SSW,18.4,25.3,N/A,,Clear,210,2013-12-19 03:53:00
10:53 PM,34.0,26.1,73,29.91,10.0,SSW,18.4,-,N/A,,Clear,210,2013-12-19 04:53:00
11:53 PM,35.1,28.0,76,29.89,10.0,SW,18.4,25.3,N/A,,Clear,220,2013-12-19 05:53:00